Skip Navigation Links
NOAA logo - Click to go to the NOAA homepage
NOAA's National Weather Service
Alaska Aviation Weather Unit
  NWS logo - Click to go to the NWS homepage
Left Navbar Graphic     17 AKDT = 01 GMT

   
NOAA is celebrating 200 years of science, service, and stewardship. Visit the NOAA 200th celebration Web site to learn more.
USA.gov is the U.S. Government's official Web portal to all Federal, state and local government Web resources and services.
Facebook
NWS on Facebook

Important Change Regarding the AAWU Web Presence

 

Over the last several months, the AAWU has been working to navigate its webpages to a nationally supported server. Security, as well as other needs, have necessitated the change.  We have been given an extension for the site changeover while we diligently work at addressing feedback received. As of July 14, 2017, aawu.arh.noaa.gov will be discontinued. The new AAWU web address is weather.gov/aawu. It is now live and will run in-parallel with the old site until it is discontinued on July 14, 2017. Please continue to send any feedback or questions regarding the new webpages to nws.ar.aawu.webauthors@noaa.gov.  Thank you for your patience during this time of transition.
AAWU Home :: Display TAF Add Bookmark
METAR PAFM 171956Z AUTO 27003KT 10SM CLR M04/M04 A2949 RMK AO2 SLP000
     T10391044 FZRANO=

METAR PAFM 172056Z AUTO 27005KT 10SM BKN080 M03/M04 A2949 RMK AO2 SLP000
     T10331044 55002 FZRANO=

METAR PAFM 172156Z AUTO 28005KT 10SM BKN080 M03/M04 A2949 RMK AO2
     SNB03E36 SLP000 P0000 T10331044 FZRANO=

METAR PAFM 172256Z AUTO 23003KT 10SM CLR M02/M04 A2948 RMK AO2 SLP998
     T10171039 FZRANO=

METAR PAFM 172356Z AUTO VRB04KT 10SM CLR M03/M04 A2948 RMK AO2 SLP995
     60000 T10281039 11017 21056 58005 FZRANO=


NOAA's National Weather Service
Alaska Aviation Weather Unit
6930 Sand Lake Road
Anchorage, AK 99502-1845
Disclaimer
Credits
Glossary
Privacy Policy
About Us
Career Opportunities
Contact AAWU Internet Services Site last modified: April, 17th 2012